Find Starlink 1973

NORAD ID: 47628 Int'l Des: 2021-012 Owner: SPXS Country: US Constellation: starlink operational
LEOCIRCULAR

Live Position

Loading 3D Globe...

About Starlink 1973

Description loading...

Upcoming Passes

Passes for default location (London). Set your location on the main map for personalized predictions.

Altitude History

Loading altitude history...

Two-Line Element Set

1 47628U 21012J 26124.48921396 .00003623 00000-0 12845-3 0 9997
2 47628 53.1585 165.5648 0001262 93.1091 267.0055 15.31701768288636
Epoch: May 4, 2026 • Age: 10 hours

Current Status

Altitude 484.1 km
Velocity 7.62 km/s
Sub-Earth Point -39.02°S, 174.27°W
Launch Date Feb 16, 2021
Age 5.2 years
Type internet

Technical Details

Classification Payload
Mass 260.00 kg
Dry Mass 248.00 kg
Total Mass 260.00 kg
Length 0.20 m
Diameter 2.80 m
Span 9.00 m
Shape Box + pan
Manufacturer SPXS
Bus Type Starlink
Phase Status In Orbit
Owner/State SPXS/US

Most Searched